Vertical_Velocity
-2 -2 -1 -1 -4 -2 0 -1 -2 -1 -5 -6 -2 -2 -2 -1 -4 -0 -3 -3 -8 7 1 -3 -0 -1 -1 -2 -6 -1 4 3 5 -7 -4 -5 -3 0 0 1 2 6 8 0 10 9 10 11 12 14 2 -2 8 2
-1 -1 -1 -1 -0 1 -1 -1 -1 -2 -1 -1 -2 -2 -1 2 -2 -1 6 4 0 -7 -2 -1 -3 -2 -0 -4 -4 -0 -1 -4 -6 -3 -10 -7 -6 -4 -0 -1 -8 -2 7 1 6 4 7 8 9 1 -1 1 3 6
-1 -0 0 2 0 -0 -1 -1 -3 -2 -2 -0 1 -3 -4 -0 -0 -3 -2 -1 8 -3 -2 0 -5 -5 -2 -1 -1 -7 5 1 1 -2 1 -4 -6 -6 -6 -2 1 1 -0 -0 -1 -0 -6 2 9 10 4 3 4 10
-1 0 0 1 1 0 2 -1 -0 1 -1 -2 1 3 0 -2 -0 0 -3 -4 1 -1 -1 0 -1 -4 -4 1 1 0 -1 1 2 2 1 -2 -4 -4 -4 -3 -3 -2 2 1 2 0 -2 -5 -0 1 -1 2 -0 1
-2 2 1 0 2 1 -1 -1 -1 -4 -1 -3 -4 -1 -2 0 -1 -0 1 -1 -2 -1 -4 -4 -4 0 -3 -5 -5 -1 4 3 1 2 3 -3 -4 -5 -3 -3 -2 -4 -5 -4 0 1 -1 -5 -1 1 -6 -2 -0 -1
-2 0 1 0 -1 -1 3 -0 -1 -2 -1 2 -1 -4 -3 -3 -3 -4 4 -5 2 4 3 -2 -7 -4 -5 -6 -3 -4 -5 1 2 3 -1 -2 -5 -5 -4 -2 -4 -3 0 -1 -4 -5 -7 -5 -4 -0 -0 -2 -4 -2
-0 -1 -2 -1 -1 -3 1 1 2 2 0 0 1 -1 -3 -3 -5 0 -1 -1 -2 -1 -1 1 1 0 -0 -0 0 -1 1 -2 0 -0 0 1 -1 -3 -4 0 -4 -6 -6 -6 -2 -2 -10 -12 -6 -7 -1 -5 -2 -3
-1 0 -1 -1 -1 -1 0 0 -0 -1 -1 -2 1 2 -2 -0 -5 -2 -3 -0 -2 -4 -1 -5 2 1 0 1 2 1 0 1 1 1 2 2 3 -2 -3 -1 3 2 -2 -2 -5 -3 3 -3 -9 -9 -6 -3 -4 -4
-2 -1 -3 -1 1 1 -2 -1 3 3 5 3 -5 1 -3 -3 -1 0 0 0 -0 -2 -2 -2 -4 2 3 -1 -1 -0 1 1 2 -1 -1 0 1 0 -3 -4 -2 -1 1 1 -1 -2 2 4 1 -6 -8 -3 -4 -2
-3 -0 -1 7 4 5 -2 -3 -0 -1 -1 5 -3 1 1 -1 -2 -3 0 -0 6 3 -1 -1 -1 -1 -2 -2 -1 -2 0 -0 1 0 -2 1 2 2 1 -1 -2 -2 0 -1 -0 0 -6 -7 -2 3 1 -5 -4 -7
2 4 5 5 1 0 1 -2 -0 -1 2 9 2 -1 -2 -4 1 -4 -4 2 -1 -4 -0 -1 -0 -0 -1 -1 0 0 -3 0 0 1 -2 1 1 1 1 1 3 3 1 -0 -1 -1 -4 -2 -2 -2 0 -1 -2 -0
4 3 0 -0 3 2 1 -2 -1 -2 -1 -4 -4 2 -2 -4 -4 -3 -8 -0 -1 -1 -0 -4 -0 0 -1 -3 0 0 -1 -1 -2 1 1 2 1 1 1 1 2 1 -0 -1 -3 -4 -2 -4 -3 -0 0 -0 -0 -1
5 2 4 3 3 3 1 -1 -1 -2 -5 1 -3 1 -5 -4 1 -0 -7 4 1 -2 2 2 -0 0 -4 3 2 -0 -1 -0 0 3 0 2 3 4 3 4 3 3 3 1 1 -0 1 -1 -3 -3 -2 -1 0 3
-0 5 3 2 -0 -0 -1 2 -4 -2 -2 -2 -5 -1 8 0 0 1 -4 -3 0 1 0 1 2 -3 -2 -4 3 -1 -1 0 0 2 3 4 2 3 3 4 3 1 1 3 2 3 1 3 0 1 0 2 1 3
5 8 8 5 3 1 2 0 1 4 -4 0 -1 -5 -1 3 -2 1 -3 -3 -2 -1 -1 1 2 3 2 0 7 2 -1 3 1 -3 13 -2 1 2 1 3 3 2 2 2 3 2 2 2 1 -0 0 -0 -3 -2
3 7 2 2 4 1 -1 2 -4 3 3 3 7 2 2 3 -1 2 0 -1 -3 -3 -2 -0 2 -3 1 1 0 3 4 2 2 2 1 11 6 -1 3 3 3 1 1 2 1 2 2 1 1 1 0 0 -1 1
5 2 6 3 -2 -1 2 2 -5 0 5 1 -1 -1 2 4 -2 -1 1 -0 1 -0 -0 1 -2 -1 -3 -1 -0 1 1 3 2 1 2 3 4 -3 3 4 2 1 1 0 -0 -0 -0 -0 0 0 1 0 0 0
-2 -2 -1 -1 -2 -4 3 6 -2 3 7 3 -3 -1 -0 3 1 0 1 0 1 -0 2 -0 2 5 1 -0 1 1 1 2 4 3 1 1 1 3 2 2 1 1 0 -1 -2 -1 -1 -1 -1 -1 -1 0 1 1
0 -2 -3 -1 -3 -0 -4 -4 5 -3 8 4 -1 1 2 3 1 1 -1 0 1 2 0 0 1 2 2 2 1 1 2 3 1 0 1 1 1 1 -1 -1 1 -1 -2 -2 -2 -2 -1 -1 -0 1 0 -1 -1 0
0 0 -2 -3 -2 -3 -3 2 6 3 1 3 -2 2 3 1 1 1 1 1 1 0 0 2 2 2 2 2 1 1 2 1 2 -0 -1 1 2 1 1 0 -0 -0 0 1 1 -0 -1 0 -1 0 1 1 0 0
-5 -4 -2 2 3 4 1 -3 2 -2 -2 1 -0 1 2 -1 0 -1 1 1 -1 -1 -1 1 2 3 1 0 0 -1 1 2 1 2 3 -0 -2 2 0 1 2 1 0 0 1 1 -0 -1 -0 0 0 2 1 0
4 2 0 1 3 -1 8 4 2 2 1 4 3 2 2 1 2 1 1 0 1 -1 2 1 1 1 1 1 2 2 2 1 2 0 -0 2 3 2 -1 0 -0 0 1 1 0 -0 1 0 -0 -0 1 1 1 0
6 12 4 -3 -3 0 6 3 -0 4 -1 -1 1 2 2 2 3 2 -1 0 -1 2 3 2 3 1 1 2 0 2 2 1 0 1 1 -1 -1 2 1 -1 0 -1 -1 1 1 0 1 0 -1 -1 -0 -0 -0 0
0 -1 -3 -8 -2 3 2 2 3 0 4 0 1 -1 1 0 3 3 1 1 2 3 3 2 1 -1 1 4 5 4 3 1 -1 -5 3 4 1 -4 -0 2 1 -0 1 -0 1 1 1 1 0 -0 -0 -0 -0 -0
-2 4 -3 -1 3 -1 -1 1 3 2 2 3 1 3 1 1 1 1 1 2 2 2 2 1 2 4 4 -0 -1 -2 -0 2 2 2 -2 -0 2 0 -1 -0 1 2 -1 0 1 0 0 1 1 1 0 -0 1 1
0 -3 -5 -3 0 -1 -1 -1 -2 -1 -1 -1 -1 1 2 2 4 2 1 0 2 3 1 1 4 4 -1 -1 1 3 1 -0 0 -0 -3 -1 -0 1 1 1 -3 -1 4 2 -0 -0 2 2 -0 1 1 1 1 -0
1 -2 -1 2 -0 -0 -1 2 3 2 1 3 2 1 0 -1 -1 -1 0 3 2 2 1 1 2 2 1 3 1 -2 -1 -0 0 1 0 -0 0 0 1 -0 -1 -2 2 1 0 0 -0 0 -0 0 1 1 1 0
-1 -2 -2 1 1 2 2 -0 -0 -0 1 1 -0 1 2 -0 1 2 2 1 1 2 2 2 1 1 2 1 3 2 -2 -1 -2 -2 -0 0 5 -1 -2 -0 0 1 3 2 0 1 0 -1 -1 0 4 -2 -1 0
-2 -1 1 1 2 2 -0 -1 -1 1 1 0 1 1 0 -1 0 1 2 1 1 2 4 7 5 -3 -5 -8 -1 5 3 3 3 -0 -2 -2 -5 0 5 3 -1 -2 -1 -1 -0 1 0 -1 -1 3 -1 -2 -1 1
1 1 -0 0 -1 -3 -3 -0 1 1 -1 -1 1 0 0 0 0 0 1 1 1 1 0 1 5 3 4 4 -0 -4 1 0 2 3 3 0 -1 -0 -0 -1 1 2 1 0 -1 -1 0 -0 -1 3 2 -0 1 1
0 -1 -2 -2 -2 -2 -1 0 -1 -3 -2 0 -0 -1 -2 -2 -0 -1 0 -0 -1 1 1 -1 -3 -1 -0 -1 -1 -1 -5 -5 -3 -2 0 0 -0 0 -1 -1 -0 -1 1 1 0 -1 -0 1 0 -0 1 -1 -1 1
-0 -3 -2 -2 -2 -2 -0 -3 -3 -1 -1 -2 -4 -2 -3 -2 -2 -0 1 -0 -2 -2 -1 1 1 0 -1 -1 -0 1 1 2 1 -1 -2 -2 -2 -1 -0 1 0 0 0 1 1 0 -0 0 1 1 1 1 1 1
-4 -3 -2 0 2 1 -2 -2 -2 -2 -5 -4 -3 -1 -1 -0 -1 -1 1 1 -0 0 1 1 -0 -1 0 2 2 1 1 1 1 1 0 -1 -0 -0 -0 0 0 -0 0 1 1 1 -0 -1 -1 -0 0 0 0 1
Height
5717 5710 5703 5694 5684 5674 5663 5653 5642 5630 5618 5606 5593 5580 5567 5553 5540 5526 5511 5498 5487 5476 5468 5460 5455 5448 5443 5437 5432 5427 5422 5416 5411 5404 5400 5397 5397 5396 5394 5393 5393 5394 5395 5399 5401 5403 5402 5400 5400 5403 5405 5409 5415 5421
5711 5705 5696 5687 5677 5667 5657 5647 5636 5625 5613 5601 5589 5576 5563 5551 5537 5523 5510 5497 5485 5474 5466 5460 5455 5448 5442 5437 5432 5428 5423 5416 5411 5407 5404 5401 5399 5398 5396 5394 5394 5395 5393 5395 5397 5396 5394 5396 5398 5401 5403 5408 5411 5414
5704 5698 5690 5681 5671 5662 5652 5641 5630 5619 5608 5596 5586 5573 5560 5548 5535 5522 5510 5497 5485 5473 5465 5457 5452 5448 5441 5436 5432 5428 5424 5419 5414 5409 5405 5403 5399 5398 5396 5395 5393 5393 5391 5391 5393 5392 5393 5393 5393 5397 5401 5405 5409 5411
5697 5690 5683 5675 5665 5655 5645 5635 5624 5612 5601 5590 5579 5569 5556 5545 5531 5519 5506 5495 5484 5473 5465 5457 5449 5445 5440 5435 5430 5426 5422 5418 5414 5409 5405 5401 5398 5396 5394 5393 5392 5391 5390 5388 5388 5389 5390 5391 5392 5393 5397 5402 5404 5407
5690 5683 5677 5669 5660 5651 5640 5628 5618 5606 5595 5583 5573 5562 5551 5539 5528 5515 5502 5491 5479 5472 5463 5455 5447 5442 5435 5431 5428 5423 5420 5415 5411 5407 5403 5398 5395 5393 5392 5390 5388 5387 5386 5386 5384 5384 5385 5386 5387 5390 5393 5396 5400 5403
5683 5675 5668 5660 5651 5641 5631 5621 5611 5600 5589 5577 5566 5556 5545 5534 5522 5512 5501 5488 5477 5469 5460 5452 5445 5438 5432 5425 5420 5419 5416 5412 5407 5402 5398 5394 5391 5389 5386 5386 5385 5383 5381 5381 5381 5381 5380 5381 5381 5383 5386 5388 5392 5397
5676 5668 5660 5652 5643 5634 5623 5613 5603 5592 5582 5571 5561 5549 5539 5528 5516 5507 5497 5487 5475 5466 5458 5450 5444 5437 5431 5424 5418 5413 5409 5406 5402 5398 5393 5390 5386 5384 5380 5378 5378 5377 5376 5374 5374 5374 5374 5374 5375 5376 5378 5380 5382 5384
5666 5659 5651 5643 5633 5624 5615 5606 5596 5585 5575 5564 5555 5545 5533 5521 5510 5500 5489 5480 5470 5463 5455 5447 5442 5435 5428 5422 5415 5409 5404 5400 5397 5392 5389 5385 5381 5378 5376 5374 5372 5369 5367 5366 5364 5364 5364 5364 5364 5366 5368 5372 5375 5378
5656 5650 5641 5632 5622 5613 5604 5596 5587 5577 5566 5556 5546 5537 5525 5515 5504 5494 5485 5475 5466 5460 5451 5444 5437 5432 5424 5416 5409 5404 5399 5394 5391 5387 5383 5380 5375 5372 5369 5366 5364 5362 5360 5357 5355 5352 5350 5351 5352 5352 5354 5357 5362 5367
5647 5639 5629 5620 5611 5603 5594 5585 5576 5567 5557 5547 5538 5529 5519 5510 5498 5489 5479 5470 5462 5455 5446 5439 5431 5425 5418 5410 5403 5398 5392 5388 5383 5381 5377 5373 5368 5365 5362 5360 5358 5355 5353 5351 5348 5344 5339 5337 5337 5338 5340 5342 5346 5350
5635 5627 5617 5611 5603 5593 5583 5574 5565 5556 5548 5539 5530 5519 5509 5500 5491 5481 5474 5465 5455 5448 5441 5433 5425 5418 5411 5404 5397 5392 5385 5380 5377 5375 5370 5366 5362 5358 5355 5353 5351 5349 5347 5344 5342 5339 5335 5331 5328 5326 5326 5328 5331 5334
5625 5617 5609 5601 5592 5582 5572 5563 5554 5546 5535 5528 5520 5510 5500 5490 5480 5474 5466 5458 5449 5441 5434 5426 5418 5411 5404 5396 5390 5383 5379 5373 5370 5366 5363 5361 5358 5354 5351 5349 5347 5345 5343 5340 5337 5334 5330 5326 5322 5318 5317 5318 5319 5322
5614 5606 5600 5591 5582 5572 5562 5553 5545 5535 5527 5518 5509 5500 5490 5482 5472 5463 5457 5450 5442 5434 5427 5418 5410 5402 5394 5387 5381 5374 5368 5365 5361 5359 5356 5355 5353 5350 5348 5346 5344 5342 5339 5337 5334 5331 5328 5324 5321 5317 5313 5311 5311 5312
5603 5597 5588 5580 5571 5561 5552 5543 5534 5527 5516 5507 5498 5490 5480 5469 5463 5455 5449 5441 5434 5426 5418 5410 5401 5392 5384 5376 5369 5364 5358 5354 5351 5350 5349 5347 5345 5343 5342 5340 5338 5337 5335 5333 5331 5328 5326 5323 5320 5316 5313 5310 5307 5307
5594 5585 5576 5566 5558 5550 5542 5533 5524 5515 5506 5497 5485 5477 5468 5460 5453 5446 5438 5431 5424 5416 5408 5400 5391 5383 5374 5365 5360 5353 5348 5346 5343 5341 5341 5338 5336 5335 5333 5332 5331 5329 5328 5327 5326 5324 5322 5320 5318 5315 5312 5309 5306 5304
5582 5573 5564 5554 5547 5540 5531 5524 5515 5507 5497 5488 5478 5468 5460 5452 5444 5436 5428 5420 5412 5404 5396 5387 5378 5369 5362 5353 5347 5343 5339 5336 5332 5330 5329 5328 5326 5324 5323 5322 5321 5320 5319 5318 5317 5317 5316 5315 5314 5312 5310 5308 5306 5303
5568 5561 5552 5544 5537 5530 5522 5513 5504 5497 5485 5475 5467 5459 5450 5442 5433 5425 5417 5409 5401 5392 5383 5373 5363 5355 5346 5341 5336 5331 5327 5324 5320 5318 5316 5315 5314 5313 5312 5311 5310 5309 5309 5308 5308 5308 5307 5307 5306 5306 5306 5304 5303 5302
5557 5549 5542 5534 5527 5520 5514 5503 5492 5484 5474 5464 5457 5447 5439 5432 5423 5414 5405 5397 5389 5379 5369 5361 5352 5343 5335 5328 5323 5319 5315 5312 5309 5306 5304 5303 5302 5301 5300 5299 5298 5298 5297 5297 5296 5296 5296 5297 5297 5297 5297 5298 5297 5296
5546 5538 5531 5523 5516 5508 5500 5495 5483 5472 5464 5454 5445 5436 5428 5421 5411 5401 5393 5384 5374 5364 5355 5346 5338 5330 5323 5317 5312 5308 5304 5300 5297 5295 5293 5291 5290 5289 5287 5286 5286 5285 5284 5284 5284 5284 5284 5285 5285 5285 5286 5287 5288 5288
5535 5528 5521 5514 5506 5497 5488 5480 5470 5460 5452 5444 5434 5425 5417 5408 5398 5388 5379 5369 5359 5350 5341 5333 5324 5317 5310 5305 5300 5296 5293 5290 5287 5284 5281 5280 5278 5276 5275 5273 5272 5271 5271 5271 5271 5271 5272 5273 5273 5274 5275 5276 5277 5279
5526 5519 5511 5504 5495 5484 5473 5466 5458 5450 5441 5433 5424 5415 5406 5395 5384 5373 5363 5353 5344 5335 5326 5318 5311 5304 5298 5293 5289 5286 5282 5279 5276 5274 5272 5268 5266 5265 5263 5262 5260 5259 5258 5258 5258 5259 5260 5261 5262 5263 5264 5265 5267 5268
5515 5506 5498 5489 5483 5475 5468 5457 5449 5440 5432 5422 5413 5403 5392 5381 5370 5359 5347 5338 5329 5320 5312 5304 5298 5292 5287 5283 5279 5275 5271 5268 5265 5263 5260 5258 5256 5253 5251 5250 5249 5248 5247 5247 5247 5247 5247 5248 5250 5251 5253 5254 5256 5257
5501 5492 5486 5480 5474 5465 5459 5449 5440 5431 5420 5410 5400 5390 5378 5366 5355 5343 5333 5323 5315 5306 5299 5293 5287 5281 5276 5271 5268 5264 5260 5256 5253 5251 5248 5244 5242 5241 5239 5238 5237 5236 5236 5236 5235 5235 5235 5236 5237 5239 5241 5242 5244 5245
5491 5484 5477 5470 5463 5456 5448 5439 5430 5420 5410 5399 5387 5375 5364 5351 5339 5329 5320 5310 5302 5294 5287 5281 5275 5269 5265 5261 5257 5252 5248 5244 5240 5236 5235 5233 5229 5226 5225 5224 5224 5223 5223 5223 5224 5224 5225 5225 5226 5227 5228 5230 5232 5234
5483 5477 5469 5461 5454 5447 5439 5430 5421 5410 5399 5387 5374 5362 5349 5336 5326 5316 5306 5298 5290 5282 5275 5269 5264 5259 5254 5248 5243 5238 5235 5231 5227 5223 5220 5218 5216 5213 5210 5209 5209 5209 5209 5210 5211 5212 5213 5215 5216 5217 5218 5219 5221 5222
5474 5467 5460 5453 5446 5439 5430 5421 5410 5399 5387 5375 5361 5348 5335 5324 5313 5303 5293 5284 5277 5269 5263 5258 5252 5246 5239 5235 5231 5225 5220 5216 5211 5207 5203 5201 5199 5197 5196 5194 5192 5194 5195 5195 5196 5198 5201 5203 5205 5206 5208 5210 5211 5212
5467 5461 5454 5448 5441 5432 5423 5413 5402 5390 5377 5364 5350 5335 5322 5310 5299 5289 5279 5271 5264 5257 5251 5245 5239 5233 5228 5222 5216 5210 5205 5201 5197 5193 5189 5186 5184 5182 5181 5180 5179 5179 5180 5181 5183 5185 5187 5190 5192 5195 5198 5200 5202 5204
5462 5455 5450 5443 5435 5425 5415 5404 5393 5380 5366 5352 5338 5325 5312 5300 5290 5279 5270 5261 5254 5246 5239 5233 5227 5220 5213 5208 5204 5199 5193 5189 5184 5180 5178 5176 5174 5171 5169 5168 5167 5167 5168 5168 5169 5171 5173 5176 5179 5184 5187 5189 5192 5195
5458 5452 5445 5437 5429 5419 5409 5397 5385 5371 5357 5343 5330 5316 5304 5291 5280 5270 5261 5252 5244 5237 5230 5222 5215 5207 5200 5193 5190 5188 5184 5180 5176 5172 5168 5165 5163 5163 5162 5160 5158 5156 5156 5156 5158 5160 5161 5164 5167 5171 5174 5177 5181 5184
5454 5448 5440 5432 5424 5414 5403 5391 5378 5365 5351 5337 5324 5310 5297 5285 5274 5263 5254 5245 5236 5229 5220 5212 5207 5200 5195 5189 5182 5176 5173 5170 5168 5165 5162 5159 5157 5155 5154 5152 5151 5150 5149 5148 5148 5149 5151 5153 5156 5159 5162 5165 5170 5174
5451 5444 5437 5429 5420 5410 5399 5388 5375 5361 5347 5334 5320 5307 5293 5281 5270 5259 5248 5238 5230 5222 5215 5206 5198 5192 5187 5181 5176 5171 5164 5160 5157 5155 5154 5153 5151 5149 5147 5145 5144 5143 5142 5141 5140 5140 5141 5144 5146 5148 5151 5154 5158 5162
5448 5442 5435 5426 5417 5408 5398 5386 5373 5361 5348 5334 5320 5307 5293 5280 5269 5258 5248 5238 5227 5218 5211 5204 5197 5190 5183 5177 5171 5166 5162 5158 5154 5151 5148 5147 5145 5144 5142 5141 5139 5137 5136 5135 5134 5134 5133 5134 5136 5139 5142 5145 5148 5151
5447 5440 5433 5426 5418 5408 5397 5386 5375 5364 5351 5337 5323 5310 5297 5284 5272 5260 5249 5238 5228 5219 5212 5204 5196 5189 5182 5176 5169 5164 5159 5155 5152 5149 5146 5145 5143 5142 5140 5137 5135 5133 5131 5130 5129 5128 5127 5127 5127 5130 5132 5135 5138 5141